Location: Mizzole
(45.4833°N, 11.0500°E)
Time: 15:39:53
(UTC+00:00)

Daily predictions for brighter satellites

Satellite Brightness Start Highest point End
(mag) Time Altitude Azimuth Time Altitude Azimuth Time Altitude Azimuth
CZ-4 R/B 2.3 16:45:55 10° SE 16:49:37 31° ENE 16:53:21 10° N
ATLAS 5 CENTAUR R/B 3.4 16:45:59 10° W 16:49:48 28° NW 16:54:03 10° NNE
FALCON 9 DEB 4.0 16:47:49 10° NW 16:51:03 35° NNE 16:54:18 10° E
CENTAUR R/B 4.1 16:50:17 10° ESE 16:51:59 11° E 16:53:44 10° E
COSMO-SKYMED 1 3.1 16:52:18 10° NNE 16:56:21 36° E 17:00:21 10° SSE
Gbstr 26 Del rocket 4.0 16:51:02 10° WNW 16:56:48 71° NNE 17:03:55 10° ESE
Meteor 1-16 Rocket 4.1 16:53:04 10° S 16:58:35 76° E 17:03:58 10° NNE
Envisat 3.0 16:54:25 10° SSE 16:59:24 60° ENE 17:04:25 10° N
Cosmos 1726 2.0 16:57:11 10° S 17:00:46 64° E 17:04:24 10° NNE
Cosmos 1908 3.6 16:57:40 10° SSE 17:01:21 42° E 17:05:03 10° NNE
Cosmos 2278 Rocket 2.4 16:56:24 10° S 17:01:51 51° ESE 17:07:21 10° NE
Okean-O 2.7 16:58:59 10° SSE 17:03:25 84° WSW 17:07:53 10° NNW
Cosmos 1953 Rocket 4.0 16:59:29 10° NNW 17:03:49 66° W 17:08:06 10° S
Falcon 9 debris 3.6 17:02:36 10° NW 17:05:56 44° NNE 17:08:54 12° E
BREEZE-M DEB (TANK) 3.5 17:00:34 10° SW 17:06:07 40° SSE 17:08:20 13° E
Unknown 3.9 17:02:55 10° NW 17:06:15 38° NNE 17:09:07 13° E
FengYun 1-2 T 4.3 17:02:43 10° SSE 17:08:13 59° ENE 17:13:43 10° N
Cosmos 1356 3.3 17:05:40 10° S 17:09:05 87° ESE 17:12:34 10° NNE
Meteor 1-11 4.3 17:03:21 10° N 17:09:07 65° ENE 17:14:52 10° SSE
Cosmos 1605 Rocket 4.0 17:04:18 10° N 17:10:25 58° ENE 17:16:24 10° SSE
Cosmos 1953 4.0 17:06:50 10° SW 17:10:37 37° WNW 17:14:26 10° N
Cosmos 1934 Rocket 4.1 17:07:01 10° N 17:13:24 90° E 17:19:47 10° S
CSL-04 Rocket 3.9 17:09:18 10° SE 17:14:37 51° ENE 17:19:54 10° N
USA 238 DEB 3.9 17:10:26 10° S 17:16:48 49° ESE 17:23:23 10° NE
USA 238 3.9 17:10:33 10° S 17:16:54 49° ESE 17:23:27 10° NE
Meteor 2-10 3.9 17:15:06 10° S 17:20:10 89° WNW 17:25:13 10° N
COBE Rocket 4.0 17:15:18 10° NNE 17:20:29 87° ESE 17:25:31 10° SSW
CZ-4 R/B 4.3 17:17:21 10° SSE 17:21:26 70° ENE 17:25:33 10° N
Cosmos 1727 Rocket 4.2 17:16:50 10° SSE 17:22:37 45° E 17:28:26 10° NNE
Cosmos 1076 Rocket 4.3 17:19:39 10° N 17:23:32 31° ENE 17:27:23 10° SE
Unknown 3.4 17:24:36 10° NW 17:28:03 53° NNE 17:30:03 22° E
Cosmos 44 4.3 17:25:12 10° SSE 17:29:15 25° ESE 17:31:18 19° ENE
YAOGAN 6 2.5 17:26:54 10° SSE 17:30:33 81° E 17:34:11 10° N
NOAA 11 4.5 17:27:00 10° SE 17:32:07 44° ENE 17:37:14 10° N
Cosmos 1812 Rocket 3.8 17:29:55 10° SSE 17:34:08 46° E 17:38:25 10° NNE
Cosmos 2058 3.8 17:30:59 10° NNE 17:34:40 28° ENE 17:36:43 19° ESE
Cosmos 1833 Rocket 2.6 17:29:09 10° NNW 17:34:49 84° ENE 17:40:26 10° SSE
Cosmos 967 Rocket 4.5 17:33:18 10° NNW 17:39:46 70° NE 17:46:14 10° SE
NOSS 3-2 (A) 3.5 17:34:22 10° SSW 17:39:57 56° ESE 17:46:14 10° NE
Ariane Rocket 3.3 17:37:19 10° SE 17:42:06 43° ENE 17:46:55 10° N
SKYMED 2 3.9 17:40:09 10° N 17:44:29 71° WNW 17:48:48 10° SSW
YAOGAN 1 2.5 17:40:24 10° SSE 17:44:43 90° E 17:49:05 10° NNW
NOSS 3-3 (A) 4.5 17:41:42 10° NW 17:49:11 73° NE 17:56:47 13° SE
NOSS 3-3 (C) 4.5 17:41:47 10° NW 17:49:16 73° NE 17:56:49 13° SE
IRS-1A Rocket 4.4 17:46:54 10° SE 17:52:08 48° ENE 17:57:25 10° N
Cosmos 1300 2.7 17:49:02 10° S 17:52:45 54° E 17:56:30 10° NNE
Cosmos 1939 Rocket 2.9 17:49:32 10° SSE 17:53:27 58° ENE 17:57:28 10° N
HJ-1C 4.5 17:54:54 29° NE 17:54:54 29° NE 17:57:06 10° N
Cosmos 2100 Rocket 4.0 17:49:23 10° N 17:55:26 53° ENE 18:01:25 10° SSE
Shenzhou-11 Module 3.7 17:53:24 10° WSW 17:55:37 21° SSW 17:56:17 19° S
CZ-2D R/B 3.1 17:52:50 10° SSE 17:56:39 70° ENE 18:00:32 10° N
Unknown 4.5 17:53:33 10° NW 17:57:07 32° NNE 17:57:58 29° NE
Abrixas rocket 2.3 17:54:07 10° W 17:57:09 56° NNW 17:57:37 48° NNE
Cosmos 1937 Rocket 4.2 17:54:07 10° N 17:58:42 31° ENE 17:59:14 30° ENE
Cosmos 990 Rocket 4.4 17:54:24 10° N 17:59:19 40° ENE 18:00:41 33° E
ADEOS Rocket 4.1 17:58:46 10° NNE 18:05:18 30° E 18:11:23 10° SSE
NOSS 3-2 (C) 3.4 18:00:07 10° SSW 18:05:41 55° ESE 18:09:35 23° NE
Cosmos 2082 Rocket 2.2 17:59:57 10° NNW 18:05:42 82° WSW 18:11:22 10° SSE
BREEZE-M DEB (TANK) 4.2 18:02:14 10° WNW 18:07:01 80° SSW 18:18:49 17° SE
USA 116 4.3 18:07:27 10° N 18:10:35 48° WNW 18:13:58 10° SSW
Cosmos 2016 Rocket 4.2 18:06:44 10° N 18:12:48 47° ENE 18:15:25 31° SE
Unknown 3.7 18:15:43 10° WNW 18:19:02 49° SW 18:19:11 49° SSW
Meteor 2-1 Rocket 4.0 18:18:13 10° S 18:23:43 74° E 18:29:18 10° NNE
Cosmos 1763 Rocket 4.3 18:19:29 10° S 18:22:48 34° SSE 18:22:48 34° SSE
CZ-4 R/B 3.7 18:21:06 10° SSW 18:24:37 26° W 18:28:12 10° NW
Lacrosse 5 2.3 18:20:29 10° NW 18:25:27 56° SW 18:27:30 33° SSE
SPOT 3 Rocket 4.1 18:26:37 40° NE 18:26:37 40° NE 18:30:48 10° N
SJ 16-02 2.2 18:22:45 10° N 18:25:44 35° NNE 18:25:44 35° NNE
FALCON 9 DEB 3.9 18:24:53 10° WNW 18:27:59 48° SW 18:27:59 48° SW
In-Cosmos 22 Rocket 4.0 18:23:53 10° N 18:29:20 85° E 18:32:45 24° SSE
ATLAS CENTAUR R/B 3.8 18:28:48 10° N 18:30:12 13° NNE 18:30:12 13° NNE
ATLAS 3B R/B 2.6 18:26:44 10° SSW 18:33:20 60° ESE 18:35:04 46° ENE
Cosmos 2084 Rocket 4.0 18:31:02 10° NW 18:35:23 57° SW 18:36:06 50° SSW
ATLAS 5 CENTAUR R/B 4.4 18:34:31 10° NNW 18:36:15 12° N 18:38:04 10° N
Unknown 4.5 18:37:04 10° NW 18:39:39 41° NW 18:39:39 41° NW
CENTAUR R/B 2.4 18:35:09 10° SSW 18:41:01 69° ESE 18:42:35 51° ENE
H-2A R/B 2.7 18:42:58 43° NNE 18:42:58 43° NNE 18:47:00 10° N
Cosmos 1459 Rocket 4.1 18:38:53 10° NNW 18:45:06 73° W 18:51:23 10° S
SJ-11-01 4.3 18:46:45 70° NNW 18:46:45 70° NNW 18:50:54 10° NNW
Cosmos 2278 Rocket 4.0 18:41:17 10° WSW 18:46:12 29° NW 18:51:09 10° N
Cosmos 2061 Rocket 3.8 18:40:31 10° N 18:46:48 87° E 18:49:21 39° S
Cosmos 1898 Rocket 3.6 18:43:58 10° NNW 18:49:16 77° WSW 18:50:02 64° S
Cosmos 2297 3.8 18:43:57 10° SSW 18:49:38 74° WNW 18:53:21 23° NNE
Okean 3 Rocket 4.3 18:56:22 10° NNW 19:00:14 51° WNW 19:00:14 51° WNW
Resurs 01 Rocket 4.3 19:06:07 10° N 19:06:07 10° N 19:06:08 10° N
ARGOS 3.9 19:05:13 44° N 19:05:13 44° N 19:08:54 10° N
Cosmos 44 4.1 19:05:29 10° SW 19:09:47 47° WNW 19:09:47 47° WNW
Cosmos 2123 Rocket 4.2 19:18:57 10° SSW 19:25:13 68° W 19:31:29 10° N
ADEOS Rocket 3.8 19:43:41 10° N 19:51:13 61° WNW 19:58:09 10° SSW
SJ 16-02 4.4 20:02:14 10° NW 20:02:46 12° WNW 20:02:46 12° WNW
ATLAS 3B R/B 4.1 20:18:12 10° WSW 20:22:24 31° WNW 20:22:24 31° WNW
CENTAUR R/B 4.3 20:26:37 10° W 20:29:52 26° WNW 20:29:52 26° WNW
